Time,TemperatureF,DewpointF,PressureIn,WindDirection,WindDirectionDegrees,WindSpeedMPH,WindSpeedGustMPH,Humidity,HourlyPrecipIn,Conditions,Clouds,dailyrainin,SoftwareType,DateUTC
2013-04-10 00:03:00,74.0,55.0,30.04,SSE,167,2.0,4.0,51,0.00,,,0.00,,2013-04-10 04:03:00,
2013-04-10 00:13:00,74.0,55.0,30.04,SSE,167,2.0,4.0,51,0.00,,,0.00,,2013-04-10 04:13:00,
2013-04-10 00:23:00,74.0,55.0,30.03,SSE,167,0.0,4.0,51,0.00,,,0.00,,2013-04-10 04:23:00,
2013-04-10 00:33:00,74.0,55.0,30.04,NW,323,0.0,3.0,52,0.00,,,0.00,,2013-04-10 04:33:00,
2013-04-10 00:43:00,74.0,55.0,30.04,NW,323,0.0,3.0,52,0.00,,,0.00,,2013-04-10 04:43:00,
2013-04-10 00:53:00,73.0,55.0,30.04,NW,322,0.0,2.0,53,0.00,,,0.00,,2013-04-10 04:53:00,
2013-04-10 01:03:00,72.0,54.0,30.04,NW,322,0.0,2.0,54,0.00,,,0.00,,2013-04-10 05:03:00,
2013-04-10 01:13:00,72.0,54.0,30.04,NW,322,0.0,2.0,54,0.00,,,0.00,,2013-04-10 05:13:00,
2013-04-10 01:23:00,71.0,55.0,30.04,NW,323,0.0,2.0,57,0.00,,,0.00,,2013-04-10 05:23:00,
2013-04-10 01:33:00,70.0,55.0,30.04,NW,322,0.0,2.0,59,0.00,,,0.00,,2013-04-10 05:33:00,
2013-04-10 01:42:00,70.0,55.0,30.04,NW,322,0.0,2.0,59,0.00,,,0.00,,2013-04-10 05:42:00,
2013-04-10 01:53:00,69.0,55.0,30.04,NW,322,2.0,4.0,60,0.00,,,0.00,,2013-04-10 05:53:00,
2013-04-10 02:03:00,68.0,54.0,30.04,NW,322,1.0,2.0,61,0.00,,,0.00,,2013-04-10 06:03:00,
2013-04-10 02:12:00,68.0,54.0,30.03,NW,322,0.0,2.0,62,0.00,,,0.00,,2013-04-10 06:12:00,
2013-04-10 02:22:00,68.0,54.0,30.03,NW,322,0.0,2.0,62,0.00,,,0.00,,2013-04-10 06:22:00,
2013-04-10 02:32:00,67.0,54.0,30.03,NW,322,0.0,1.0,64,0.00,,,0.00,,2013-04-10 06:32:00,
2013-04-10 02:42:00,67.0,54.0,30.03,NW,322,0.0,1.0,64,0.00,,,0.00,,2013-04-10 06:42:00,
2013-04-10 02:52:00,66.0,54.0,30.03,NW,322,0.0,1.0,65,0.00,,,0.00,,2013-04-10 06:52:00,
2013-04-10 03:02:00,66.0,54.0,30.03,NNW,329,1.0,3.0,65,0.00,,,0.00,,2013-04-10 07:02:00,
2013-04-10 03:12:00,66.0,54.0,30.03,NNW,329,1.0,3.0,65,0.00,,,0.00,,2013-04-10 07:12:00,
2013-04-10 03:22:00,66.0,54.0,30.03,NNW,329,0.0,3.0,65,0.00,,,0.00,,2013-04-10 07:22:00,
2013-04-10 03:32:00,66.0,55.0,30.03,NNW,329,1.0,2.0,67,0.00,,,0.00,,2013-04-10 07:32:00,
2013-04-10 03:42:00,66.0,55.0,30.03,NNW,329,1.0,2.0,67,0.00,,,0.00,,2013-04-10 07:42:00,
2013-04-10 03:52:00,66.0,54.0,30.03,SSW,202,2.0,5.0,65,0.00,,,0.00,,2013-04-10 07:52:00,
2013-04-10 04:02:00,69.0,55.0,30.03,NW,324,2.0,8.0,61,0.00,,,0.00,,2013-04-10 08:02:00,
2013-04-10 04:12:00,69.0,55.0,30.03,NW,324,2.0,8.0,61,0.00,,,0.00,,2013-04-10 08:12:00,
2013-04-10 04:22:00,70.0,55.0,30.04,NNE,21,3.0,12.0,58,0.00,,,0.00,,2013-04-10 08:22:00,
2013-04-10 04:32:00,70.0,55.0,30.04,West,278,3.0,12.0,58,0.00,,,0.00,,2013-04-10 08:32:00,
2013-04-10 04:42:00,70.0,55.0,30.04,West,278,3.0,12.0,58,0.00,,,0.00,,2013-04-10 08:42:00,
2013-04-10 04:52:00,70.0,55.0,30.04,NNW,340,4.0,10.0,58,0.00,,,0.00,,2013-04-10 08:52:00,
2013-04-10 05:02:00,69.0,54.0,30.04,West,275,3.0,8.0,59,0.00,,,0.00,,2013-04-10 09:02:00,
2013-04-10 05:12:00,69.0,55.0,30.04,NW,323,2.0,8.0,60,0.00,,,0.00,,2013-04-10 09:12:00,
2013-04-10 05:22:00,69.0,55.0,30.04,NW,323,2.0,8.0,60,0.00,,,0.00,,2013-04-10 09:22:00,
2013-04-10 05:32:00,69.0,55.0,30.04,North,360,1.0,4.0,61,0.00,,,0.00,,2013-04-10 09:32:00,
2013-04-10 05:43:00,69.0,55.0,30.04,North,360,1.0,4.0,61,0.00,,,0.00,,2013-04-10 09:43:00,
2013-04-10 05:53:00,69.0,55.0,30.05,NNW,329,1.0,3.0,61,0.00,,,0.00,,2013-04-10 09:53:00,
2013-04-10 06:03:00,69.0,55.0,30.05,WNW,288,1.0,7.0,61,0.00,,,0.00,,2013-04-10 10:03:00,
2013-04-10 06:13:00,69.0,55.0,30.05,NNW,336,2.0,4.0,61,0.00,,,0.00,,2013-04-10 10:13:00,
2013-04-10 06:23:00,69.0,55.0,30.05,NNW,336,2.0,4.0,61,0.00,,,0.00,,2013-04-10 10:23:00,
2013-04-10 06:33:00,68.0,54.0,30.05,WNW,295,2.0,5.0,61,0.00,,,0.00,,2013-04-10 10:33:00,
2013-04-10 06:43:00,68.0,54.0,30.05,WNW,295,2.0,5.0,61,0.00,,,0.00,,2013-04-10 10:43:00,
2013-04-10 06:53:00,68.0,54.0,30.05,West,269,2.0,4.0,62,0.00,,,0.00,,2013-04-10 10:53:00,
2013-04-10 07:02:00,68.0,54.0,30.06,West,269,0.0,2.0,62,0.00,,,0.00,,2013-04-10 11:02:00,
2013-04-10 07:12:00,68.0,54.0,30.06,West,269,0.0,2.0,62,0.00,,,0.00,,2013-04-10 11:12:00,
2013-04-10 07:22:00,68.0,54.0,30.06,WSW,257,1.0,3.0,62,0.00,,,0.00,,2013-04-10 11:22:00,
2013-04-10 07:32:00,68.0,54.0,30.06,WSW,257,0.0,1.0,62,0.00,,,0.00,,2013-04-10 11:32:00,
2013-04-10 07:42:00,68.0,54.0,30.06,WSW,257,0.0,1.0,62,0.00,,,0.00,,2013-04-10 11:42:00,
2013-04-10 07:53:00,68.0,54.0,30.07,WSW,257,1.0,3.0,62,0.00,,,0.00,,2013-04-10 11:53:00,
2013-04-10 08:03:00,68.0,54.0,30.06,SW,225,1.0,2.0,62,0.00,,,0.00,,2013-04-10 12:03:00,
2013-04-10 08:12:00,68.0,54.0,30.06,SW,225,1.0,2.0,62,0.00,,,0.00,,2013-04-10 12:12:00,
2013-04-10 08:23:00,68.0,54.0,30.07,WSW,238,2.0,3.0,61,0.00,,,0.00,,2013-04-10 12:23:00,
2013-04-10 08:33:00,69.0,55.0,30.07,WSW,238,0.0,1.0,61,0.00,,,0.00,,2013-04-10 12:33:00,
2013-04-10 08:42:00,69.0,55.0,30.07,WSW,238,0.0,1.0,61,0.00,,,0.00,,2013-04-10 12:42:00,
2013-04-10 08:52:00,69.0,55.0,30.07,WSW,238,2.0,4.0,60,0.00,,,0.00,,2013-04-10 12:52:00,
2013-04-10 09:02:00,69.0,55.0,30.08,WSW,245,1.0,4.0,60,0.00,,,0.00,,2013-04-10 13:02:00,
2013-04-10 09:12:00,69.0,55.0,30.08,WSW,245,1.0,4.0,60,0.00,,,0.00,,2013-04-10 13:12:00,
2013-04-10 09:23:00,70.0,55.0,30.08,WSW,245,0.0,2.0,60,0.00,,,0.00,,2013-04-10 13:23:00,
2013-04-10 09:32:00,70.0,55.0,30.09,WSW,244,0.0,1.0,59,0.00,,,0.00,,2013-04-10 13:32:00,
2013-04-10 09:43:00,70.0,55.0,30.09,WSW,244,0.0,1.0,59,0.00,,,0.00,,2013-04-10 13:43:00,
2013-04-10 09:53:00,71.0,55.0,30.08,WSW,242,2.0,3.0,58,0.00,,,0.00,,2013-04-10 13:53:00,
2013-04-10 10:02:00,73.0,56.0,30.07,WSW,240,1.0,3.0,56,0.00,,,0.00,,2013-04-10 14:02:00,
2013-04-10 10:12:00,73.0,56.0,30.07,WSW,240,1.0,3.0,56,0.00,,,0.00,,2013-04-10 14:12:00,
2013-04-10 10:22:00,75.0,56.0,30.07,WSW,239,0.0,2.0,51,0.00,,,0.00,,2013-04-10 14:22:00,
2013-04-10 10:33:00,78.0,56.0,30.07,WSW,252,3.0,8.0,47,0.00,,,0.00,,2013-04-10 14:33:00,
2013-04-10 10:42:00,78.0,56.0,30.07,WSW,252,3.0,8.0,47,0.00,,,0.00,,2013-04-10 14:42:00,
2013-04-10 10:52:00,79.0,55.0,30.07,WSW,250,6.0,10.0,44,0.00,,,0.00,,2013-04-10 14:52:00,
2013-04-10 11:03:00,80.0,56.0,30.06,SW,236,6.0,11.0,44,0.00,,,0.00,,2013-04-10 15:03:00,
2013-04-10 11:12:00,80.0,56.0,30.06,SW,236,6.0,11.0,44,0.00,,,0.00,,2013-04-10 15:12:00,
2013-04-10 11:23:00,80.0,55.0,30.06,WSW,240,3.0,10.0,43,0.00,,,0.00,,2013-04-10 15:23:00,
2013-04-10 11:33:00,82.0,57.0,30.06,WNW,295,3.0,7.0,42,0.00,,,0.00,,2013-04-10 15:33:00,
2013-04-10 11:42:00,82.0,57.0,30.06,WNW,295,3.0,7.0,42,0.00,,,0.00,,2013-04-10 15:42:00,
2013-04-10 11:53:00,82.0,56.0,30.06,West,259,4.0,9.0,41,0.00,,,0.00,,2013-04-10 15:53:00,
2013-04-10 12:03:00,83.0,56.0,30.05,SW,217,4.0,13.0,40,0.00,,,0.00,,2013-04-10 16:03:00,
2013-04-10 12:13:00,83.0,56.0,30.05,SW,217,4.0,13.0,40,0.00,,,0.00,,2013-04-10 16:13:00,
2013-04-10 12:23:00,83.0,56.0,30.05,WSW,252,4.0,10.0,40,0.00,,,0.00,,2013-04-10 16:23:00,
2013-04-10 12:33:00,84.0,57.0,30.04,SW,236,3.0,11.0,40,0.00,,,0.00,,2013-04-10 16:33:00,
2013-04-10 12:43:00,84.0,57.0,30.04,SW,236,3.0,11.0,40,0.00,,,0.00,,2013-04-10 16:43:00,
2013-04-10 12:53:00,85.0,57.0,30.03,SW,225,5.0,10.0,38,0.00,,,0.00,,2013-04-10 16:53:00,
2013-04-10 13:03:00,85.0,56.0,30.03,South,179,6.0,11.0,37,0.00,,,0.00,,2013-04-10 17:03:00,
2013-04-10 13:13:00,86.0,56.0,30.02,SW,221,2.0,10.0,36,0.00,,,0.00,,2013-04-10 17:13:00,
2013-04-10 13:22:00,86.0,56.0,30.02,SW,221,2.0,10.0,36,0.00,,,0.00,,2013-04-10 17:22:00,
2013-04-10 13:33:00,87.0,55.0,30.01,SSE,167,2.0,9.0,34,0.00,,,0.00,,2013-04-10 17:33:00,
2013-04-10 13:43:00,87.0,55.0,30.01,SSE,167,2.0,9.0,34,0.00,,,0.00,,2013-04-10 17:43:00,
2013-04-10 13:53:00,88.0,54.0,30.01,SSW,212,1.0,12.0,31,0.00,,,0.00,,2013-04-10 17:53:00,
2013-04-10 14:03:00,88.0,54.0,30.00,WSW,240,2.0,10.0,32,0.00,,,0.00,,2013-04-10 18:03:00,
2013-04-10 14:12:00,88.0,54.0,30.00,WSW,240,2.0,10.0,32,0.00,,,0.00,,2013-04-10 18:12:00,
2013-04-10 14:23:00,89.0,55.0,29.99,WSW,251,6.0,11.0,32,0.00,,,0.00,,2013-04-10 18:23:00,
2013-04-10 14:33:00,89.0,54.0,29.98,SSW,202,4.0,13.0,30,0.00,,,0.00,,2013-04-10 18:33:00,
2013-04-10 14:42:00,89.0,54.0,29.98,SSW,202,4.0,13.0,30,0.00,,,0.00,,2013-04-10 18:42:00,
2013-04-10 14:53:00,90.0,52.0,29.98,WSW,252,4.0,10.0,28,0.00,,,0.00,,2013-04-10 18:53:00,
2013-04-10 15:03:00,90.0,51.0,29.98,NE,46,2.0,11.0,27,0.00,,,0.00,,2013-04-10 19:03:00,
2013-04-10 15:13:00,90.0,51.0,29.98,NE,46,2.0,11.0,27,0.00,,,0.00,,2013-04-10 19:13:00,
2013-04-10 15:22:00,91.0,51.0,29.97,SW,232,5.0,12.0,26,0.00,,,0.00,,2013-04-10 19:22:00,
2013-04-10 15:33:00,91.0,50.0,29.96,WSW,244,6.0,14.0,25,0.00,,,0.00,,2013-04-10 19:33:00,
2013-04-10 15:42:00,91.0,50.0,29.96,WSW,244,6.0,14.0,25,0.00,,,0.00,,2013-04-10 19:42:00,
2013-04-10 15:53:00,91.0,51.0,29.94,WSW,248,3.0,11.0,26,0.00,,,0.00,,2013-04-10 19:53:00,
2013-04-10 16:03:00,91.0,50.0,29.94,West,259,5.0,11.0,25,0.00,,,0.00,,2013-04-10 20:03:00,
2013-04-10 16:12:00,92.0,51.0,29.93,West,263,5.0,9.0,25,0.00,,,0.00,,2013-04-10 20:12:00,
2013-04-10 16:23:00,92.0,51.0,29.93,West,263,5.0,9.0,25,0.00,,,0.00,,2013-04-10 20:23:00,
2013-04-10 16:33:00,92.0,51.0,29.93,SW,234,2.0,11.0,25,0.00,,,0.00,,2013-04-10 20:33:00,
2013-04-10 16:42:00,92.0,49.0,29.92,SW,234,2.0,13.0,23,0.00,,,0.00,,2013-04-10 20:42:00,
2013-04-10 16:52:00,92.0,49.0,29.92,SW,234,2.0,13.0,23,0.00,,,0.00,,2013-04-10 20:52:00,
2013-04-10 17:03:00,92.0,45.0,29.91,WSW,254,4.0,11.0,20,0.00,,,0.00,,2013-04-10 21:03:00,
2013-04-10 17:13:00,92.0,45.0,29.91,WSW,254,4.0,11.0,20,0.00,,,0.00,,2013-04-10 21:13:00,
2013-04-10 17:22:00,91.0,47.0,29.91,SW,221,4.0,15.0,22,0.00,,,0.00,,2013-04-10 21:22:00,
2013-04-10 17:33:00,92.0,46.0,29.90,WNW,296,4.0,10.0,21,0.00,,,0.00,,2013-04-10 21:33:00,
2013-04-10 17:43:00,92.0,46.0,29.90,WNW,296,4.0,10.0,21,0.00,,,0.00,,2013-04-10 21:43:00,
2013-04-10 17:53:00,91.0,47.0,29.90,ENE,59,2.0,8.0,22,0.00,,,0.00,,2013-04-10 21:53:00,
2013-04-10 18:03:00,92.0,49.0,29.89,WSW,250,3.0,7.0,23,0.00,,,0.00,,2013-04-10 22:03:00,
2013-04-10 18:13:00,92.0,49.0,29.89,WSW,250,3.0,7.0,23,0.00,,,0.00,,2013-04-10 22:13:00,
2013-04-10 18:23:00,92.0,49.0,29.89,South,171,2.0,5.0,23,0.00,,,0.00,,2013-04-10 22:23:00,
2013-04-10 18:33:00,89.0,55.0,29.88,South,178,7.0,15.0,32,0.00,,,0.00,,2013-04-10 22:33:00,
2013-04-10 18:42:00,89.0,55.0,29.88,South,178,7.0,15.0,32,0.00,,,0.00,,2013-04-10 22:42:00,
2013-04-10 18:53:00,88.0,55.0,29.88,South,185,8.0,16.0,33,0.00,,,0.00,,2013-04-10 22:53:00,
2013-04-10 19:03:00,87.0,55.0,29.88,SE,133,5.0,16.0,34,0.00,,,0.00,,2013-04-10 23:03:00,
2013-04-10 19:12:00,87.0,55.0,29.88,SE,133,5.0,16.0,34,0.00,,,0.00,,2013-04-10 23:12:00,
2013-04-10 19:22:00,87.0,55.0,29.88,SE,146,7.0,11.0,34,0.00,,,0.00,,2013-04-10 23:22:00,
2013-04-10 19:33:00,86.0,55.0,29.88,SSE,157,4.0,13.0,35,0.00,,,0.00,,2013-04-10 23:33:00,
2013-04-10 19:42:00,86.0,55.0,29.88,SSE,157,4.0,13.0,35,0.00,,,0.00,,2013-04-10 23:42:00,
2013-04-10 19:53:00,85.0,55.0,29.88,South,177,7.0,15.0,36,0.00,,,0.00,,2013-04-10 23:53:00,
2013-04-10 20:02:00,84.0,55.0,29.89,SSE,156,5.0,14.0,37,0.00,,,0.00,,2013-04-11 00:02:00,
2013-04-10 20:13:00,84.0,55.0,29.89,SSE,156,5.0,14.0,37,0.00,,,0.00,,2013-04-11 00:13:00,
2013-04-10 20:23:00,83.0,55.0,29.89,SSE,167,5.0,10.0,38,0.00,,,0.00,,2013-04-11 00:23:00,
2013-04-10 20:32:00,83.0,55.0,29.90,SE,141,6.0,11.0,39,0.00,,,0.00,,2013-04-11 00:32:00,
2013-04-10 20:42:00,83.0,55.0,29.90,SE,141,6.0,11.0,39,0.00,,,0.00,,2013-04-11 00:42:00,
2013-04-10 20:53:00,82.0,55.0,29.90,SSW,195,4.0,8.0,40,0.00,,,0.00,,2013-04-11 00:53:00,
2013-04-10 21:02:00,82.0,56.0,29.91,SW,222,4.0,8.0,41,0.00,,,0.00,,2013-04-11 01:02:00,
2013-04-10 21:12:00,81.0,56.0,29.91,SSW,213,3.0,9.0,42,0.00,,,0.00,,2013-04-11 01:12:00,
2013-04-10 21:22:00,81.0,56.0,29.91,SSW,213,3.0,9.0,42,0.00,,,0.00,,2013-04-11 01:22:00,
2013-04-10 21:32:00,81.0,56.0,29.91,SW,221,3.0,6.0,42,0.00,,,0.00,,2013-04-11 01:32:00,
2013-04-10 21:42:00,81.0,56.0,29.91,SW,221,3.0,6.0,42,0.00,,,0.00,,2013-04-11 01:42:00,
2013-04-10 21:52:00,80.0,55.0,29.92,SSW,196,1.0,5.0,43,0.00,,,0.00,,2013-04-11 01:52:00,
2013-04-10 22:03:00,79.0,56.0,29.92,SSW,197,0.0,2.0,45,0.00,,,0.00,,2013-04-11 02:03:00,
2013-04-10 22:12:00,79.0,56.0,29.92,SSW,196,0.0,4.0,45,0.00,,,0.00,,2013-04-11 02:12:00,
2013-04-10 22:22:00,79.0,56.0,29.92,SSW,196,0.0,4.0,45,0.00,,,0.00,,2013-04-11 02:22:00,
2013-04-10 22:32:00,79.0,56.0,29.93,SSW,196,1.0,3.0,45,0.00,,,0.00,,2013-04-11 02:32:00,
2013-04-10 22:42:00,79.0,56.0,29.93,SSW,196,1.0,3.0,45,0.00,,,0.00,,2013-04-11 02:42:00,
2013-04-10 22:53:00,78.0,55.0,29.92,West,262,3.0,5.0,45,0.00,,,0.00,,2013-04-11 02:53:00,
2013-04-10 23:02:00,78.0,56.0,29.92,West,261,1.0,4.0,46,0.00,,,0.00,,2013-04-11 03:02:00,
2013-04-10 23:12:00,78.0,56.0,29.92,West,261,1.0,4.0,46,0.00,,,0.00,,2013-04-11 03:12:00,
2013-04-10 23:22:00,78.0,56.0,29.93,WSW,248,3.0,7.0,46,0.00,,,0.00,,2013-04-11 03:22:00,
2013-04-10 23:33:00,78.0,56.0,29.93,WSW,257,0.0,5.0,47,0.00,,,0.00,,2013-04-11 03:33:00,
2013-04-10 23:43:00,77.0,55.0,29.92,South,171,1.0,4.0,47,0.00,,,0.00,,2013-04-11 03:43:00,
2013-04-10 23:54:00,77.0,55.0,29.92,South,171,1.0,4.0,47,0.00,,,0.00,,2013-04-11 03:54:00,